Location: ShareBrained
(45.5589°N, 122.6491°W)
Time: 16:07:29
(UTC-08:00)

NOAA 19 - Pass Details

Date: 18 January 2020
Orbit: 840 x 861 km, 99.2° (Epoch: 26 February)

Event Time Altitude Azimuth Distance (km) Brightness Sun altitude
Rises 05:56:50 0° 16° (NNE) 3,411 8.4 -18.6°
Reaches altitude 10° 05:59:13 10° 19° (NNE) 2,470 7.7 -18.2°
Maximum altitude 06:04:41 70° 103° (ESE) 894 5.5 -17.3°
Drops below altitude 10° 06:10:06 10° 188° (S) 2,451 7.7 -16.4°
Sets 06:12:28 0° 190° (S) 3,382 8.4 -16.0°
